Regional Weather Roundup
Issued by NWS

Home | Current Version | Previous Version | Graphics & Text | Print | Product List | Glossary On
Versions: 1 2 3 4 5 6 7 8 9 10 11 12 13 14 15 16 17 18 19 20 21 22 23 24 25 26 27 28 29 30 31 32 33 34 35 36 37 38 39 40 41 42 43 44 45 46 47 48 49 50
000
ASUS43 KOAX 241310
RWRNE

WEATHER ROUNDUP FOR NEBRASKA
NATIONAL WEATHER SERVICE OMAHA NE
800 AM CDT TUE MAY 24 2016

NOTES: SATELLITE DATA IS BEING USED TO AUGMENT CLOUD COVER ABOVE
       12000 FEET.
       "FAIR" INDICATES FEW OR NO CLOUDS BELOW 12,000 FEET WITH NO
       SIGNIFICANT WEATHER AND/OR OBSTRUCTIONS TO VISIBILITY.

  * THESE STATIONS DO NOT REPORT WEATHER SUCH AS RAIN...SNOW OR FOG.

NEZ001>004-019>022-054>056-241400-
NEBRASKA PANHANDLE

CITY           SKY/WX    TMP DP  RH WIND       PRES   REMARKS
SCOTTSBLUFF    SUNNY     46  41  82 CALM      29.93R
ALLIANCE       SUNNY     44  42  93 CALM      29.92R
CHADRON        SUNNY     47  42  83 CALM      29.91R
KIMBALL        PTSUNNY   46  43  90 CALM      29.95S
SIDNEY         CLOUDY    50  43  77 SW3       29.95R
$$

NEZ057>060-069>072-079>082-241400-
SOUTHWEST NEBRASKA

CITY           SKY/WX    TMP DP  RH WIND       PRES   REMARKS
NORTH PLATTE   CLOUDY    58  49  72 SW5       29.88R
IMPERIAL       CLOUDY    56  50  80 NW6       29.91R
LEXINGTON      CLOUDY    56  51  82 SE7       29.85F
MCCOOK         SUNNY     59  52  77 SE9       29.87R
OGALLALA       MOSUNNY   50  44  81 CALM      29.91S
$$

NEZ005>010-023>029-035>040-094-241400-
NORTH CENTRAL NEBRASKA

CITY           SKY/WX    TMP DP  RH WIND       PRES   REMARKS
VALENTINE      SUNNY     52  45  77 SW5       29.89R
AINSWORTH      SUNNY     56  46  70 SW5       29.90S
BROKEN BOW     CLOUDY    57  50  77 N7        29.87F
O`NEILL        CLOUDY    55  50  81 CALM      29.88F
ORD            CLOUDY    56  53  90 CALM      29.87F
THEDFORD       MOSUNNY   56  47  71 CALM      29.91S
$$

NEZ041-046>049-061>064-073>077-083>087-241400-
SOUTH CENTRAL NEBRASKA

CITY           SKY/WX    TMP DP  RH WIND       PRES   REMARKS
GRAND ISLAND   CLOUDY    62  60  93 SE6       29.89F FOG
AURORA         CLOUDY    63  63 100 S7        29.89F
HASTINGS       CLOUDY    61  60  97 CALM      29.89F FOG
HEBRON         LGT RAIN  60  58  92 SE14G20   29.85F
HOLDREGE       CLOUDY    62  60  94 NE3       29.90R FOG
KEARNEY *      CLOUDY    63  61  94 SE5       29.89F
YORK           LGT RAIN  63  59  88 SW5       29.90F
$$

NEZ011>018-030>034-042>045-241400-
NORTHEAST NEBRASKA

CITY           SKY/WX    TMP DP  RH WIND       PRES   REMARKS
NORFOLK        PTSUNNY   59  57  93 S5        29.88S
ALBION         CLOUDY    61  58  90 CALM      29.88F FOG
BLAIR          PTSUNNY   62  61  96 S5        29.90S
FREMONT        CLOUDY    61  60  97 CALM      29.89F
TEKAMAH        CLOUDY    60  58  92 S3        29.90R
WAYNE          CLOUDY    59  58  96 CALM      29.89S
$$

NEZ050>053-065>068-078-088>093-241400-
SOUTHEAST NEBRASKA

CITY           SKY/WX    TMP DP  RH WIND       PRES   REMARKS
LINCOLN        CLOUDY    62  60  93 CALM      29.91R
OMAHA EPPLEY   CLOUDY    63  60  90 S3        29.90S
BEATRICE       LGT RAIN  64  57  79 S13       29.95R
FALLS CITY     CLOUDY    66  60  81 W10       29.90R
NEBRASKA CITY  CLOUDY    64  64 100 SW6       29.91R
PLATTSMOUTH    CLOUDY    65  65  97 SE6       29.89F
$$

NEZ044-045-051>053-067-241400-
OMAHA AREA

CITY           SKY/WX    TMP DP  RH WIND       PRES   REMARKS
OMAHA EPPLEY   CLOUDY    63  60  90 S3        29.90S
BLAIR          PTSUNNY   62  61  96 S5        29.90S
FREMONT        CLOUDY    61  60  97 CALM      29.89F
MILLARD        CLOUDY    63  61  95 CALM      29.89S
PLATTSMOUTH    CLOUDY    65  65  97 SE6       29.89F
WAHOO          FAIR      60  58  94 CALM      29.89S
$$




USA.gov is the U.S. government's official web portal to all federal, state and local government web resources and services.